Simultaneous Nadir Overpasses (SNOs) Predictions

Prediction of SNOs between METOP-B and NOAA-19 Satellite Orbit:

Table of predicted SNOs for the next 14.0 days since TLE Epoch: 3/16/2024
Index Date (METOP-B) Time (METOP-B) Lat,Lon (METOP-B) SZA (METOP-B ) Date (NOAA-19) Time (NOAA-19) Lat,Lon (NOAA-19) SZA (NOAA-19 ) Distance(km) Time Diff (sec)
1 03/17/2024 08:04:57 79.48, 74.42 80.82 03/17/2024 08:03:56 79.47, 74.29 80.79 2.88 61
2 03/17/2024 08:55:36 -79.52,-117.90 99.14 03/17/2024 08:54:47 -79.53,-117.83 99.14 1.74 49
3 03/17/2024 09:46:14 79.60, 50.06 80.96 03/17/2024 09:45:49 79.59, 50.02 80.94 1.09 25
4 03/17/2024 10:36:55 -79.61,-142.53 99.05 03/17/2024 10:36:43 -79.60,-142.67 99.07 3.04 12
5 03/17/2024 11:27:33 79.69, 25.44 81.05 03/17/2024 11:27:44 79.69, 25.48 81.05 0.74 11
6 03/17/2024 12:18:13 -79.73,-166.87 98.92 03/17/2024 12:18:37 -79.72,-166.92 98.92 1.25 24
7 03/17/2024 13:08:52 79.77, 0.84 81.14 03/17/2024 13:09:39 79.78, 0.95 81.16 2.57 47
8 03/17/2024 13:59:32 -79.81, 168.53 98.83 03/17/2024 14:00:32 -79.81, 168.56 98.81 0.59 60
9 03/29/2024 02:12:08 79.19, 160.40 75.86 03/29/2024 02:11:14 79.20, 160.47 75.86 1.70 54
10 03/29/2024 03:02:48 -79.24, -31.90 104.09 03/29/2024 03:02:08 -79.23, -32.00 104.11 2.29 40
11 03/29/2024 03:53:26 79.32, 135.99 76.00 03/29/2024 03:53:09 79.30, 135.86 75.97 3.16 17
12 03/29/2024 04:44:06 -79.37, -56.31 103.96 03/29/2024 04:44:02 -79.36, -56.34 103.96 0.58 4
13 03/29/2024 05:34:44 79.44, 111.60 76.13 03/29/2024 05:35:03 79.44, 111.54 76.13 1.40 19
14 03/29/2024 06:25:24 -79.49, -80.70 103.82 03/29/2024 06:25:56 -79.49, -80.65 103.81 1.15 32
15 03/29/2024 07:16:02 79.56, 87.23 76.27 03/29/2024 07:16:57 79.56, 87.25 76.28 0.41 55



Historial Predications of SNOs between METOP-B and NOAA-19
